[Iaude] MPEC U75: 2023 TA27 [a=1.15,e=0.81,i=9.8,H=22.7]

mpec at marsden.cfa.harvard.edu mpec at marsden.cfa.harvard.edu
Wed Oct 18 09:58:11 EDT 2023


M.P.E.C. 2023-U75                              Issued 2023 October 18, 13:56 UT

     The Minor Planet Electronic Circulars contain information on unusual
         minor planets, routine data on comets and natural satellites,
         and occasional editorial announcements.  They are published
    on behalf of Division F of the International Astronomical Union by the
          Minor Planet Center, Smithsonian Astrophysical Observatory,
                          Cambridge, MA 02138, U.S.A.
			  
             Prepared using the Tamkin Foundation Computer Network

                              MPC at CFA.HARVARD.EDU
            URL https://www.minorplanetcenter.net/    ISSN 1523-6714

                                   2023 TA27                                    


Observations:
     K23T27A* C2023 10 11.40665701 54 41.209-01 01 37.04         21.63wXEU075F52
     K23T27A  C2023 10 11.41877501 54 38.010-01 02 20.75         21.85wXEU075F52
     K23T27A  C2023 10 11.43093101 54 34.840-01 03 04.90         21.63wXEU075F52
     K23T27A  C2023 10 11.52520901 54 09.983-01 08 46.05         21.48GVEU075F51
     K23T27A  C2023 10 11.52602501 54 09.743-01 08 49.09         21.07GVEU075F51
     K23T27A  C2023 10 11.56092001 54 00.574-01 10 55.91         21.41GVEU075F51
     K23T27A 3C2023 10 13.42232801 45 30.321-03 11 19.78         21.33GVEU075T14
     K23T27A 3C2023 10 13.42330301 45 30.024-03 11 23.80         21.33GVEU075T14
     K23T27A 3C2023 10 13.42429501 45 29.720-03 11 27.91         21.36GVEU075T14
     K23T27A 1C2023 10 15.26997501 35 43.264-05 26 34.76         21.12GVEU075G96
     K23T27A 1C2023 10 15.27517301 35 41.406-05 26 59.28         21.45GVEU075G96
     K23T27A 1C2023 10 15.28035701 35 39.638-05 27 22.72         20.92GVEU075G96
     K23T27A 1C2023 10 15.28554501 35 37.770-05 27 47.02         20.71GVEU075G96

Observer details:
F51 Pan-STARRS 1, Haleakala.  Observers J. Bulger, T. Lowe, P. Minguez, A.
    Schultz, I. Smith.  Measurers K. Chambers, T. de Boer, J. Fairlamb, H.
    Gao, M. Huber, C.-C. Lin, E. Magnier, Y. Ramanjooloo, R. Wainscoat, R.
    Weryk.  1.8-m Ritchey-Chretien + CCD.
F52 Pan-STARRS 2, Haleakala.  Observers J. Bulger, T. Lowe, P. Minguez, A.
    Schultz, I. Smith.  Measurers K. Chambers, T. de Boer, J. Bulger, J.
    Fairlamb, H. Gao, M. Huber, C.-C. Lin, T. Lowe, E. Magnier, P. Minguez, Y.
    Ramanjooloo, A. Schultz, I. Smith, R. Wainscoat, R. Weryk.  1.8-m Ritchey-
    Chretien + CCD.
G96 Mt. Lemmon Survey.  Observer D. C. Fuls.  Measurers E. C. Beshore, D. Fay,
    J. B. Fazekas, D. C. Fuls, A. R. Gibbs, A. D. Grauer, H. Groeller, J. K.
    Hogan, R. A. Kowalski, S. M. Larson, G. J. Leonard, D. Rankin, R. L.
    Seaman, F. C. Shelly, K. W. Wierzchos.  1.5-m reflector + 10K CCD.
T14 Canada-France-Hawaii Telescope, Maunakea.  Observers R. Wainscoat, L.
    Wells, T. Burdullis.  Measurers R. Weryk, R. Wainscoat.  3.6-m Canada-
    France-Hawaii Telescope + CCD.

Orbital elements:
2023 TA27                                                Earth MOID = 0.0841 AU
Epoch 2023 Sept. 13.0 TT = JDT 2460200.5                Bell                    
M 282.43848              (2000.0)            P               Q                  
n   0.79709463     Peri.  348.41460     -0.98554958     -0.16929681             
a   1.1520274      Node   181.86544     +0.16580009     -0.95747642             
e   0.8146046      Incl.    9.78694     +0.03467503     -0.23361825             
P   1.24           H   22.77          G   0.15           U   9                  
Residuals in seconds of arc
231011 F52  0.2+  0.0     231011 F51  0.2+  0.1+    231015 G96  0.3-  0.2-
231011 F52  0.2-  0.0     231013 T14  0.0   0.0     231015 G96  0.6+  0.6+
231011 F52  0.1+  0.3-    231013 T14  0.0   0.0     231015 G96  0.0   0.5+
231011 F51  0.1+  0.1+    231013 T14  0.0   0.0
231011 F51  0.3-  0.0     231015 G96  0.1+  0.1+

Ephemeris:
2023 TA27                a,e,i = 1.15, 0.81, 10                  q = 0.2136
Date    TT    R. A. (2000) Decl.     Delta      r    Elong.  Phase     V
2023 09 18    02 37 55.6 +10 53 33   0.6833  1.5583   133.8    27.7    24.1
...
2023 10 03    02 20 27.9 +05 23 52   0.4494  1.4169   153.4    18.5    22.7
...
2023 10 11    01 56 21.8 -00 37 19   0.3423  1.3319   164.8    11.3    21.8
...
2023 10 17    01 25 10.7 -07 48 05   0.2756  1.2632   163.2    13.1    21.2
2023 10 18    01 18 24.2 -09 17 11   0.2660  1.2514   161.2    14.9    21.2
2023 10 19    01 11 04.9 -10 51 33   0.2570  1.2393   158.8    16.9    21.2
...
2023 10 25    00 13 29.0 -21 53 37   0.2162  1.1644   138.0    34.8    21.2
...
2023 11 02    22 16 55.0 -36 07 06   0.2060  1.0562   102.4    66.6    21.8
...
2023 11 17    18 51 58.7 -39 41 35   0.2986  0.8227    48.6   115.6    24.2

M. P. C. Staff               (C) Copyright 2023 MPC           M.P.E.C. 2023-U75





More information about the Iaude mailing list